Beacon packets - map view · info · telemetry · weather · raw · status · beacons · messages · bulletins · browse · moving · my account
Originating callsign:
Show:

Loading beacon packets...

APRS beacon packets are stored for 14 days. It is possible to search using wildcards (*?) after a prefix.

2019-05-21 11:11:31 EDT: LU1DNS-4>ID: [GF05rm] BPQ NODE PACKET (BBS CALL LU1DNS)
2019-05-21 11:11:32 EDT: HK3LR-1>BEACON: SYSOP hk3pqi@lcra.org.co
2019-05-21 11:11:36 EDT: K6MEU-10>BEACON: ]
2019-05-21 11:11:42 EDT: VK3ATM-7>ID: VK3ATM in Parkdale Packet 1200 439.05 Mhz 144.90 Mhz
2019-05-21 11:11:45 EDT: ZL2KO-1>UIDIGI: UIDIGI 1.9
2019-05-21 11:11:46 EDT: YM2KDU>BEACON: PLXDigi DUZRAD
2019-05-21 11:11:48 EDT: BKELEY>UIDIGI: UIDIGI 1.9
2019-05-21 11:11:50 EDT: CQ0PCM-3>BEACON: APRS LOCAL ALTO ALENTEJO (REP)
2019-05-21 11:11:53 EDT: F5ZVO>UIDIGI: UIDIGI 1.9
2019-05-21 11:11:56 EDT: IR6AF>UIDIGI: UIDIGI*1.9
2019-05-21 11:11:13 EDT: N0QK-8>ID: N0QK-8/R WIDE1-1/D
2019-05-21 11:11:17 EDT: W5DCR-3>BEACON: W5DCR-YSF*111111z3247.07N/09647.48WrW5DCR 146.960 pl 110.9 -0.6
2019-05-21 11:11:25 EDT: SK3BG-2>UIDIGI: UIDIGI 1.9
2019-05-21 11:11:36 EDT: 1>ID: Network Node
2019-05-21 11:11:38 EDT: LU7EO-2>UIDIGI: UIDIGI 1.9
2019-05-21 11:11:41 EDT: KB3SVY-2>CQ: WEST VINCENT TWP EOC
2019-05-21 11:11:42 EDT: SK6NL-2>ID: SK6NL-2/R SK6NL-2/D SK6NL-1/B
2019-05-21 11:11:43 EDT: VK3CV-1>UIDIGI: UIDIGI 1.9
2019-05-21 11:11:48 EDT: W6BXN-3>ID: W6BXN-3/R TARC/D BULN/N
2019-05-21 11:11:57 EDT: KA2QYE-10>UIDIGI: UIDIGI 1.9
2019-05-21 11:11:58 EDT: KA0GFC-3>BEACON: <UI>:
2019-05-21 11:12:02 EDT: W9MKS-15>ID: W9MKS-15/R SRRC/D W9MKS-1/B W9MKS-7/N
2019-05-21 11:12:07 EDT: LU3WAM-4>ID: [FE76KR] BPQ NODE PACKET (BBS CALL LU3WAM)
2019-05-21 11:12:10 EDT: N0QK-1>ID: N0QK/R
2019-05-21 11:12:11 EDT: IR0EF-10>BEACON: APRX 2.90 by IW0QMN
2019-05-21 11:12:12 EDT: IK5FKA-2>ID: Mugello Hills BBS & CHAT. Connect to IK5FKA-1 & IK5FKA-11.
2019-05-21 11:12:14 EDT: VA7DXH>ID: LADYSMITH BPQ NODE (VA7DXH-8)
2019-05-21 11:12:15 EDT: WA0D-1>BEACON: wa0d-1 DIGI Burrton Kansas
2019-05-21 11:12:16 EDT: ED2ZAD-3>BEACON: Asociacion Radioaficionados Bilbainos -
2019-05-21 11:12:17 EDT: N3KTX-3>BEACON: MasonDixon A.P.R.S. Group at 146.895- with IRLP 7070
2019-05-21 11:11:58 EDT: K4UAN-3>ID: K4UAN-3/R NONE/D K4UAN-1/B
2019-05-21 11:12:00 EDT: VE7VRO>BEACON: VIEW ROYAL TOWN HALL DIGI/VRO KANODE/VE7VRO-7ÀÿÀÀqÀ
2019-05-21 11:12:05 EDT: SR4NWQ>UIDIGI: UIDIGI 1.9
2019-05-21 11:12:07 EDT: W4NN-1>BEACON: W4NN-1 Wn EARS DIGI EGLIN AFB FL
2019-05-21 11:12:14 EDT: OE2XHR-11>UIDIGI: UIDIGI 1.9
2019-05-21 11:12:17 EDT: IU8LDF-2>UIDIGI: UIDIGI 1.9
2019-05-21 11:12:18 EDT: DB0MZG-2>UIDIGI: UIDIGI 1.9
2019-05-21 11:12:20 EDT: K0HAM-9>UIDIGI: UIDIGI 1.9
2019-05-21 11:12:22 EDT: SK6NL-2>ID: SK6NL-2/R SK6NL-2/D SK6NL-1/B
2019-05-21 11:12:28 EDT: VE7SDP>BEACON: VE7SDP, Sidney Emergency Program
2019-05-21 11:12:18 EDT: LU7FAV-4>ID: Node en Rosario Sta fe FF97qa
2019-05-21 11:12:24 EDT: WHTNY>BEACON: KD5DMT-5 APRS Digipeater
2019-05-21 11:12:25 EDT: K6MEU-10>BEACON: ]
2019-05-21 11:12:26 EDT: ERINB>ID: ERINB/R
2019-05-21 11:12:27 EDT: 9A3XK>BEACON: CRLNet.108 - SysOp 9a3XK & 9a7kxp-Internet via DJWIRELES http://djw.hr/
2019-05-21 11:12:28 EDT: N4PZJ-9>BEACON: Monitering 146.520!
2019-05-21 11:12:35 EDT: N6ZX>ID: N6ZX/R KMBBS/B WOODY/N
2019-05-21 11:12:36 EDT: KE0AE>BEACON: Genoa, Colo. WX/APRS Digi Station Voice 147.060 PL 103.5
2019-05-21 11:12:37 EDT: SL4ZYX-3>ID: SL4ZYX/R
2019-05-21 11:12:37 EDT: 9A3XK>BEACON: Power 9W Gain 3dB Height 240m Ant omni
< previous
FAQ · Blog · Discussion group · Linking to aprs.fi · AIS sites · Service status · Database statistics · Advertising on aprs.fi · Technical details · API · Change log · Planned changes · Credits and thanks · Terms Of Service · iPhone/iPad APRS